Weather History for Seward, AK

Change the Weather History Date:

Thursday, May 29, 2014

  Actual Average Record
Temperature  
Mean Temperature 48 °F -  
Max Temperature 52 °F 55 °F 76 °F (1993)
Min Temperature 46 °F 42 °F 35 °F (1971)
Degree Days  
Heating Degree Days 16    
Moisture  
Dew Point 44 °F    
Average Humidity 84    
Maximum Humidity 93    
Minimum Humidity 74    
Precipitation  
Precipitation 0.00 in - - ()
Sea Level Pressure  
Sea Level Pressure 30.05 in    
Wind  
Wind Speed 6 mph (South)    
Max Wind Speed 23 mph    
Max Gust Speed 29 mph    
Visibility 10 miles    
Events Rain    
Averages and records for this station are not official NWS values.
T = Trace of Precipitation, MM = Missing Value Source: NWS Daily Summary

Daily Weather History Graph

Daily Weather History Graph

Search for Another Location

Airport:

Trip Planner

Search our weather history database for the weather conditions in past years. The results will help you decide how hot, cold, wet, or windy it might be!

Date:

Astronomy

May. 29, 2014 Rise Set
Actual Time 4:50 AM AKDT 11:01 PM AKDT
Civil Twilight 3:29 AM AKDT 12:23 AM AKDT
Nautical Twilight Sun does not rise Sun does not rise
Astronomical Twilight Sun does not rise Sun does not rise
Moon 6:11 AM AKDT (5/29) 11:39 PM AKDT (5/29)
Length of Visible Light 20h 54m
Length of Day
18h 11m
New Moon, 1% of the Moon is Illuminated
May 29
New Moon
Jun 5
First Quarter
Jun 12
Full
Jun 19
Last Quarter
Jun 27
New

Hourly Weather History & Observations

Time (AKDT) Temp. Dew Point Humidity Pressure Visibility Wind Dir Wind Speed Gust Speed Precip Events Conditions
12:17 AM 46.9 °F 44.1 °F 90% 30.15 in 10.0 mi SE 4.6 mph - N/A   Overcast
12:53 AM 46.9 °F 44.1 °F 90% 30.14 in 10.0 mi Calm Calm - 0.00 in Rain Light Rain
1:03 AM 46.9 °F 44.1 °F 90% 30.14 in 10.0 mi ESE 4.6 mph - 0.00 in Rain Light Rain
1:18 AM 46.9 °F 45.0 °F 93% 30.14 in 10.0 mi Calm Calm - 0.00 in Rain Light Rain
1:34 AM 48.0 °F 44.1 °F 86% 30.14 in 9.0 mi North - - 0.00 in Rain Light Rain
1:39 AM 46.9 °F 44.1 °F 90% 30.14 in 9.0 mi North - - 0.00 in Rain Light Rain
1:53 AM 46.9 °F 45.0 °F 93% 30.14 in 9.0 mi North - - 0.00 in Rain Light Rain
2:53 AM 46.9 °F 45.0 °F 93% 30.13 in 10.0 mi North - - 0.00 in Rain Light Rain
3:38 AM 46.9 °F 45.0 °F 93% 30.11 in 10.0 mi Calm Calm - 0.00 in   Overcast
3:53 AM 46.9 °F 45.0 °F 93% 30.11 in 10.0 mi Calm Calm - 0.00 in   Overcast
4:53 AM 46.9 °F 45.0 °F 93% 30.10 in 10.0 mi Calm Calm - N/A   Overcast
5:24 AM 46.9 °F 45.0 °F 93% 30.09 in 10.0 mi Calm Calm - N/A   Overcast
5:53 AM 46.9 °F 45.0 °F 93% 30.09 in 10.0 mi Calm Calm - N/A   Overcast
6:53 AM 46.9 °F 45.0 °F 93% 30.08 in 10.0 mi Calm Calm - N/A   Overcast
7:53 AM 48.0 °F 45.0 °F 89% 30.07 in 9.0 mi ESE 3.5 mph - 0.00 in Rain Light Rain
8:53 AM 50.0 °F 44.1 °F 80% 30.06 in 10.0 mi South 8.1 mph - 0.00 in   Overcast
9:16 AM 48.9 °F 44.1 °F 83% 30.06 in 8.0 mi South 11.5 mph 19.6 mph 0.00 in Rain Light Rain
9:25 AM 48.9 °F 44.1 °F 83% 30.06 in 10.0 mi South 11.5 mph - 0.00 in Rain Light Rain
9:53 AM 48.9 °F 44.1 °F 83% 30.06 in 10.0 mi South 11.5 mph - 0.00 in   Overcast
10:40 AM 50.0 °F 43.0 °F 77% 30.05 in 10.0 mi South 11.5 mph 19.6 mph 0.00 in Rain Light Rain
10:53 AM 50.0 °F 43.0 °F 77% 30.04 in 10.0 mi South 8.1 mph - 0.00 in   Overcast
11:05 AM 50.0 °F 44.1 °F 80% 30.04 in 10.0 mi South 9.2 mph - N/A   Overcast
11:42 AM 50.0 °F 44.1 °F 80% 30.03 in 10.0 mi South 10.4 mph 16.1 mph 0.00 in   Overcast
11:53 AM 50.0 °F 44.1 °F 80% 30.03 in 10.0 mi South 12.7 mph 21.9 mph 0.00 in Rain Light Rain
12:16 PM 50.0 °F 43.0 °F 77% 30.03 in 10.0 mi South 16.1 mph 19.6 mph 0.00 in Rain Light Rain
12:53 PM 50.0 °F 43.0 °F 77% 30.03 in 10.0 mi South 15.0 mph 20.7 mph 0.00 in Rain Light Rain
1:53 PM 50.0 °F 44.1 °F 80% 30.02 in 10.0 mi South 11.5 mph 21.9 mph 0.00 in Rain Light Rain
2:53 PM 50.0 °F 44.1 °F 80% 30.01 in 10.0 mi SSW 19.6 mph - 0.00 in Rain Light Rain
3:53 PM 50.0 °F 44.1 °F 80% 30.00 in 10.0 mi South 19.6 mph 28.8 mph 0.00 in Rain Light Rain
4:53 PM 50.0 °F 44.1 °F 80% 29.98 in 10.0 mi South 23.0 mph 27.6 mph 0.00 in Rain Light Rain
5:53 PM 51.1 °F 43.0 °F 74% 29.98 in 10.0 mi South 18.4 mph 26.5 mph 0.00 in Rain Light Rain
6:53 PM 51.1 °F 43.0 °F 74% 29.98 in 10.0 mi South 13.8 mph - 0.00 in   Overcast
7:53 PM 51.1 °F 43.0 °F 74% 29.97 in 10.0 mi South 12.7 mph - 0.00 in Rain Light Rain
8:53 PM 51.1 °F 43.0 °F 74% 29.95 in 10.0 mi South 13.8 mph - 0.00 in Rain Light Rain
9:53 PM 51.1 °F 43.0 °F 74% 29.95 in 10.0 mi South 11.5 mph - 0.00 in Rain Light Rain
10:53 PM 50.0 °F 44.1 °F 80% 29.95 in 10.0 mi Variable 4.6 mph - 0.00 in Rain Light Rain
11:53 PM 48.0 °F 45.0 °F 89% 29.94 in 10.0 mi Calm Calm - 0.00 in Rain Light Rain